When you browse on this site, cookies collect data to enhance your experience and personalize the content and advertising you see.
Visit our Privacy Policy to learn more. By continuing to use the site, you agree to this use of cookies and data.

Stündliche Wetter Tasquillo

Heute, 15 August, Samstag

Zeit Temperatur Niederschläge Wind Luftdruck Luftfeuchtigkeit
00:00 +16°C° 0 mm 0 m/S 626 mmHg 94%
01:00 +15°C° 0 mm 0 m/S 625 mmHg 94%
02:00 +15°C° 0 mm 0 m/S 625 mmHg 94%
03:00 +14°C° 0 mm 0 m/S 625 mmHg 94%
04:00 +14°C° 0 mm 0 m/S 625 mmHg 93%
05:00 +14°C° 0 mm 0 m/S 625 mmHg 94%
06:00 +16°C° 0 mm 0 m/S 626 mmHg 84%
07:00 +18°C° 0 mm 0 m/S 626 mmHg 74%
08:00 +22°C° 0 mm 1 m/S 627 mmHg 64%
09:00 +23°C° 0 mm 2 m/S 627 mmHg 57%
10:00 +25°C° 0 mm 2 m/S 628 mmHg 50%
11:00 +27°C° 0 mm 3 m/S 628 mmHg 43%
12:00 +27°C° 0 mm 4 m/S 628 mmHg 45%
13:00 +27°C° 0 mm 5 m/S 627 mmHg 46%
14:00 +28°C° 0 mm 6 m/S 627 mmHg 48%
15:00 +26°C° 0.4 mm 6 m/S 626 mmHg 56%
16:00 +24°C° 0.4 mm 6 m/S 626 mmHg 63%
17:00 +22°C° 0.4 mm 6 m/S 626 mmHg 70%
18:00 +21°C° 0.4 mm 4 m/S 626 mmHg 77%
19:00 +20°C° 0.4 mm 3 m/S 627 mmHg 83%
20:00 +19°C° 0.4 mm 2 m/S 627 mmHg 89%
21:00 +20°C° 0.6 mm 1 m/S 627 mmHg 90%
22:00 +19°C° 0.6 mm 1 m/S 627 mmHg 91%
23:00 +17°C° 0.6 mm 0 m/S 627 mmHg 92%

Morgen, 16 August, Sonntag

Zeit Temperatur Niederschläge Wind Luftdruck Luftfeuchtigkeit
00:00 +17°C° 0 mm 0 m/S 627 mmHg 93%
01:00 +16°C° 0 mm 0 m/S 626 mmHg 94%
02:00 +16°C° 0 mm 0 m/S 626 mmHg 96%
03:00 +15°C° 0 mm 0 m/S 626 mmHg 96%
04:00 +15°C° 0 mm 0 m/S 626 mmHg 96%
05:00 +15°C° 0 mm 0 m/S 626 mmHg 96%
06:00 +16°C° 0 mm 0 m/S 627 mmHg 89%
07:00 +18°C° 0 mm 0 m/S 627 mmHg 81%
08:00 +20°C° 0 mm 0 m/S 628 mmHg 74%
09:00 +23°C° 0 mm 1 m/S 628 mmHg 67%
10:00 +25°C° 0 mm 2 m/S 628 mmHg 60%
11:00 +26°C° 0 mm 2 m/S 629 mmHg 53%
12:00 +26°C° 0.2 mm 4 m/S 628 mmHg 55%
13:00 +26°C° 0.2 mm 5 m/S 628 mmHg 57%
14:00 +27°C° 0.2 mm 6 m/S 627 mmHg 59%
15:00 +24°C° 0.4 mm 6 m/S 627 mmHg 63%
16:00 +23°C° 0.4 mm 5 m/S 627 mmHg 68%
17:00 +22°C° 0.4 mm 5 m/S 627 mmHg 73%
18:00 +21°C° 0.3 mm 4 m/S 627 mmHg 79%
19:00 +20°C° 0.3 mm 3 m/S 627 mmHg 85%
20:00 +19°C° 0.3 mm 2 m/S 627 mmHg 91%
21:00 +19°C° 0 mm 2 m/S 627 mmHg 93%
22:00 +19°C° 0 mm 1 m/S 627 mmHg 94%
23:00 +19°C° 0 mm 1 m/S 628 mmHg 95%

übermorgen, 17 August, Montag

Zeit Temperatur Niederschläge Wind Luftdruck Luftfeuchtigkeit
00:00 +19°C° 0 mm 1 m/S 627 mmHg 95%
01:00 +19°C° 0 mm 1 m/S 627 mmHg 95%
02:00 +19°C° 0 mm 1 m/S 627 mmHg 95%
03:00 +16°C° 0 mm 0 m/S 627 mmHg 94%
04:00 +16°C° 0 mm 0 m/S 627 mmHg 94%
05:00 +16°C° 0 mm 0 m/S 627 mmHg 93%
06:00 +19°C° 0 mm 1 m/S 627 mmHg 89%
07:00 +20°C° 0 mm 1 m/S 628 mmHg 84%
08:00 +21°C° 0 mm 1 m/S 629 mmHg 80%
09:00 +21°C° 0 mm 2 m/S 629 mmHg 72%
10:00 +24°C° 0 mm 2 m/S 629 mmHg 63%
11:00 +25°C° 0 mm 3 m/S 629 mmHg 55%
12:00 +26°C° 0.1 mm 4 m/S 629 mmHg 54%
13:00 +27°C° 0.1 mm 5 m/S 629 mmHg 52%
14:00 +28°C° 0.1 mm 6 m/S 628 mmHg 50%
15:00 +26°C° 0.2 mm 6 m/S 628 mmHg 55%
16:00 +24°C° 0.2 mm 6 m/S 627 mmHg 60%
17:00 +23°C° 0.2 mm 6 m/S 627 mmHg 65%
18:00 +21°C° 0 mm 4 m/S 627 mmHg 74%
19:00 +20°C° 0 mm 3 m/S 627 mmHg 82%
20:00 +18°C° 0 mm 2 m/S 627 mmHg 91%
21:00 +19°C° 0 mm 1 m/S 627 mmHg 92%
22:00 +19°C° 0 mm 1 m/S 627 mmHg 94%
23:00 +18°C° 0 mm 1 m/S 627 mmHg 95%

18 August, Dienstag

Zeit Temperatur Niederschläge Wind Luftdruck Luftfeuchtigkeit
00:00 +18°C° 0 mm 1 m/S 627 mmHg 95%
01:00 +16°C° 0 mm 0 m/S 626 mmHg 95%
02:00 +15°C° 0 mm 0 m/S 626 mmHg 95%
03:00 +15°C° 0 mm 0 m/S 626 mmHg 96%
04:00 +15°C° 0 mm 0 m/S 626 mmHg 96%
05:00 +14°C° 0 mm 0 m/S 626 mmHg 96%
06:00 +16°C° 0 mm 0 m/S 627 mmHg 89%
07:00 +18°C° 0 mm 0 m/S 628 mmHg 82%
08:00 +19°C° 0 mm 0 m/S 628 mmHg 75%
09:00 +23°C° 0 mm 1 m/S 629 mmHg 68%
10:00 +24°C° 0 mm 2 m/S 629 mmHg 61%
11:00 +26°C° 0 mm 2 m/S 629 mmHg 54%
12:00 +26°C° 0 mm 3 m/S 628 mmHg 53%
13:00 +27°C° 0 mm 4 m/S 628 mmHg 51%
14:00 +27°C° 0 mm 5 m/S 628 mmHg 50%
15:00 +26°C° 0.1 mm 5 m/S 627 mmHg 56%
16:00 +25°C° 0.1 mm 5 m/S 627 mmHg 62%
17:00 +23°C° 0.1 mm 5 m/S 626 mmHg 68%
18:00 +21°C° 0 mm 4 m/S 626 mmHg 76%
19:00 +19°C° 0 mm 3 m/S 626 mmHg 85%
20:00 +19°C° 0 mm 1 m/S 626 mmHg 93%
21:00 +18°C° 0 mm 1 m/S 626 mmHg 94%
22:00 +18°C° 0 mm 1 m/S 626 mmHg 95%
23:00 +16°C° 0 mm 0 m/S 626 mmHg 95%

19 August, Mittwoch

Zeit Temperatur Niederschläge Wind Luftdruck Luftfeuchtigkeit
00:00 +16°C° 0 mm 0 m/S 626 mmHg 94%
01:00 +15°C° 0 mm 0 m/S 625 mmHg 92%
02:00 +15°C° 0 mm 0 m/S 625 mmHg 90%
03:00 +16°C° 0 mm 0 m/S 625 mmHg 88%
04:00 +16°C° 0 mm 0 m/S 625 mmHg 85%
05:00 +16°C° 0 mm 0 m/S 625 mmHg 83%
06:00 +18°C° 0 mm 0 m/S 626 mmHg 74%
07:00 +19°C° 0 mm 0 m/S 626 mmHg 64%
08:00 +22°C° 0 mm 1 m/S 627 mmHg 55%
09:00 +23°C° 0 mm 1 m/S 627 mmHg 51%
10:00 +25°C° 0 mm 1 m/S 627 mmHg 47%
11:00 +26°C° 0 mm 2 m/S 627 mmHg 42%
12:00 +27°C° 0 mm 3 m/S 627 mmHg 43%
13:00 +27°C° 0 mm 4 m/S 627 mmHg 43%
14:00 +28°C° 0 mm 5 m/S 626 mmHg 43%
15:00 +27°C° 0 mm 5 m/S 626 mmHg 48%
16:00 +26°C° 0 mm 5 m/S 625 mmHg 53%
17:00 +25°C° 0 mm 5 m/S 625 mmHg 58%
18:00 +22°C° 0 mm 4 m/S 625 mmHg 68%
19:00 +20°C° 0 mm 2 m/S 625 mmHg 77%
20:00 +19°C° 0 mm 1 m/S 625 mmHg 87%
21:00 +18°C° 0 mm 1 m/S 625 mmHg 89%
22:00 +18°C° 0 mm 1 m/S 625 mmHg 91%
23:00 +15°C° 0 mm 0 m/S 625 mmHg 93%

20 August, Donnerstag

Zeit Temperatur Niederschläge Wind Luftdruck Luftfeuchtigkeit
00:00 +15°C° 0 mm 0 m/S 624 mmHg 92%
01:00 +15°C° 0 mm 0 m/S 624 mmHg 91%
02:00 +14°C° 0 mm 0 m/S 624 mmHg 90%
03:00 +14°C° 0 mm 0 m/S 624 mmHg 89%
04:00 +14°C° 0 mm 0 m/S 624 mmHg 88%
05:00 +14°C° 0 mm 0 m/S 624 mmHg 87%
06:00 +16°C° 0 mm 0 m/S 625 mmHg 76%
07:00 +20°C° 0 mm 1 m/S 626 mmHg 66%
08:00 +22°C° 0 mm 1 m/S 627 mmHg 56%
09:00 +24°C° 0 mm 1 m/S 627 mmHg 49%
10:00 +25°C° 0 mm 1 m/S 627 mmHg 43%
11:00 +27°C° 0 mm 2 m/S 627 mmHg 36%
12:00 +27°C° 0 mm 3 m/S 626 mmHg 36%
13:00 +28°C° 0 mm 3 m/S 626 mmHg 35%
14:00 +29°C° 0 mm 4 m/S 625 mmHg 34%
15:00 +27°C° 0 mm 4 m/S 625 mmHg 42%
16:00 +26°C° 0 mm 5 m/S 625 mmHg 50%
17:00 +25°C° 0 mm 5 m/S 624 mmHg 58%
18:00 +22°C° 0 mm 4 m/S 624 mmHg 68%
19:00 +20°C° 0 mm 2 m/S 624 mmHg 78%
20:00 +20°C° 0 mm 1 m/S 624 mmHg 89%
21:00 +19°C° 0 mm 1 m/S 624 mmHg 91%
22:00 +19°C° 0 mm 1 m/S 624 mmHg 93%
23:00 +18°C° 0 mm 1 m/S 624 mmHg 96%
Mehr zeigen